Other Public Products
Issued by NWS Grand Forks, ND

Home | Current Version | Previous Version | Text Only | Print | Product List | Glossary On
Versions: 1 2 3 4 5 6 7 8 9 10 11 12 13 14 15 16 17 18 19 20 21 22 23 24 25 26 27 28 29 30 31 32 33 34 35 36 37 38 39 40 41 42 43 44 45 46 47 48 49 50
000
FPUS83 KFGF 182131
OPUFGF
PRAIRIE TO PINES WEATHER ROUNDUP
NATIONAL WEATHER SERVICE EASTERN NORTH DAKOTA/GRAND FORKS ND
300 PM CST MON DEC 18 2017

 **SATELLITE DATA USED TO AUGMENT SKY COVER AT AUTOMATED STATIONS**
 *****  WEATHER ACROSS EASTERN NORTH DAKOTA  *****

CITY           SKY/WX    TMP DP  RH WIND       PRES   REMARKS
GRAND FORKS    LGT RAIN  37  31  78 W14       29.51R
GRND FORKS AFB PTSUNNY   37  28  70 W10       29.52R
GRND FORKS NWS   N/A     36 N/A N/A NW10        N/A
BUXTON           N/A     36  34  93 W9          N/A
DEVILS LAKE    MIX PCPN  35  29  78 NW13      29.54R
FARGO          CLOUDY    36  33  89 SW12      29.55R
WAHPETON ARPT  CLOUDY    37  32  81 W10       29.59R
$$

 *****  WEATHER ACROSS CENTRAL AND WESTERN NORTH DAKOTA  *****

CITY           SKY/WX    TMP DP  RH WIND       PRES   REMARKS
JAMESTOWN      PTSUNNY   40  32  73 W13       29.54R
BISMARCK       CLOUDY    47  33  58 W16       29.58S
MINOT          CLOUDY    36  33  89 NW9       29.55R
MINOT AFB      CLOUDY    35  32  90 W8        29.54S
GARRISON         N/A     37  35  92 NW15      29.55S
WILLISTON      CLOUDY    36  31  82 N6        29.62R
DICKINSON      PTSUNNY   47  29  49 W21G30    29.58R
HETTINGER      FAIR      51  27  39 W25G31    29.64R
$$

 *****  OTHER OBSERVATIONS NORTHEAST NORTH DAKOTA  *****

CITY           SKY/WX    TMP DP  RH WIND       PRES   REMARKS
WALHALLA       FAIR      36  36 100 W9        29.50S
LANGDON        LGT SNOW  32  32 100 NW13      29.50R WCI  22
CAVALIER       MIX PCPN  36  30  80 NW14      29.50R
GRAFTON        FAIR      36  30  80 W12       29.51R
CANDO          CLOUDY    34  34 100 W13       29.55R WCI  25
FORT TOTTEN      N/A     35  32  90 W7        29.95S
ROLLA          CLOUDY    34  30  86 W12       29.51R
RUGBY          LGT SNOW  32  32 100 W14       29.54R WCI  22
 ***** THE ABOVE OBSERVATIONS ARE NON NWS ARE NOT QUALITY
        CONTROLLED AND MAY MIS-REPORT RAIN FOR SNOW...
$$

 *****  OTHER OBSERVATIONS SOUTHEAST NORTH DAKOTA *****

CITY           SKY/WX    TMP DP  RH WIND       PRES   REMARKS
COOPERSTOWN    CLOUDY    36  34  93 W17       29.55R
VALLEY CITY    CLOUDY    37  37 100 W12       29.56R
OAKES            N/A     43  32  65 W10       29.59R
GWINNER          N/A     41  32  70 W17       29.58R
SHEYENNE NWR     N/A     39  33  80 W12       29.95S
BUFFALO          N/A     37  32  82 SW13        N/A
WYNDMERE       NOT AVBL
 ***** THE ABOVE OBSERVATIONS ARE NON NWS ARE NOT QUALITY
       CONTROLLED AND MAY MIS-REPORT RAIN FOR SNOW...
$$

  *****  WEATHER ACROSS NORTHERN MINNESOTA  *****

CITY           SKY/WX    TMP DP  RH WIND       PRES   REMARKS
FLAG ISLAND    MOCLDY    34  30  86 W6        29.41R
WARROAD        MOCLDY    34  30  86 W9        29.44R
ROSEAU         FAIR      34  28  80 SW10      29.45R
HALLOCK        FAIR      34  30  86 NW7       29.48R
THF RVR FALLS  LGT SNOW  32  30  93 SW12      29.49S FOG     WCI  23
HALSTAD        NOT AVBL
FOSSTON        FLURRIES  30  28  93 SW8       29.51R WCI  23
BAUDETTE       CLOUDY    32  31  96 SW7       29.43S FOG
WASKISH        LGT SNOW  34  30  86 SW13      29.46S WCI  25
CROOKSTON      LGT SNOW  34  30  86 W13       29.53R WCI  25
$$
  *****  WEATHER ACROSS CENTRAL AND WEST MINNESOTA  *****

CITY           SKY/WX    TMP DP  RH WIND       PRES   REMARKS
BEMIDJI        FLURRIES  32  31  95 W7        29.49R
PARK RAPIDS    LGT SNOW  32  30  92 SW8       29.52R FOG     WCI  25
WADENA         LGT SNOW  32  30  93 SW8       29.56R VSB 3/4 WCI  25
DETROIT LAKES  LGT SNOW  32  32 100 SW8       29.55S VSB 1   WCI  25
MOORHEAD       LGT RAIN  34  30  86 CALM      29.57R
FERGUS FALLS   PTSUNNY   36  30  80 SW9       29.60S
ELBOW LAKE     CLOUDY    37  32  82 SW8       29.59S
MORRIS MN      CLOUDY    41  32  70 W9        29.60R
STAPLES        LGT SNOW  32  28  86 S8        29.55F WCI  25
WHEATON        PTSUNNY   39  28  65 SW9       29.62R
$$
  *****  WEATHER ELSEWHERE ACROSS MINNESOTA  *****

CITY           SKY/WX    TMP DP  RH WIND       PRES   REMARKS
DULUTH         CLOUDY    31  27  85 SW10      29.53F WCI  22
INTRNTL FALLS  HVY SNOW  32  30  92 SW9       29.43F VSB<1/4 WCI  24
ELY            FAIR      32  27  80 SW8       29.48S WCI  25
CLOQUET        MOCLDY    32  27  80 S10       29.54F WCI  24
BRAINERD       LGT SNOW  34  28  79 S12       29.57F
HIBBING        LGT SNOW  31  27  85 S6        29.49F VSB 3/4
ALEXANDRIA     CLOUDY    37  29  72 SW8       29.58F
SAINT CLOUD    CLOUDY    36  30  79 S9        29.62F
MINNEAPOLIS    CLOUDY    37  30  75 S7        29.67F
$$

  *****  WEATHER ACROSS SOUTH DAKOTA  *****

CITY           SKY/WX    TMP DP  RH WIND       PRES   REMARKS
SIOUX FALLS    CLOUDY    50  27  40 SW12G18   29.70F
BROOKINGS      FAIR      46  26  45 W14       29.67
WATERTOWN      FAIR      44  29  55 SW15G24   29.63S
HURON          CLOUDY    53  26  35 W12       29.66F
SISSETON         N/A     43  30  60 W15G21    29.58F
ABERDEEN       FAIR      49  27  42 W18G26    29.61F
MITCHELL       FAIR      51  27  39 SW14      29.69F
PIERRE         PTSUNNY   53  26  35 W14       29.67S
MOBRIDGE       FAIR      53  26  35 W13       29.60S
RAPID CITY     FAIR      60  26  27 W14       29.72S
$$

  *****  SOME WEATHER IN NEARBY STATES *****

CITY           SKY/WX    TMP DP  RH WIND       PRES   REMARKS
GLASGOW MT     FLURRIES  33  31  92 N13G23    29.71R WCI  24
GREAT FALLS MT PTSUNNY   48  24  39 W29G40    29.74R
CHEYENNE WY    FAIR      47  23  38 W37G52    29.89F
SCOTTSBLUFF NE FAIR      55  24  30 W24G35    29.86S
OMAHA NE       FAIR      54  24  31 SW10G21   29.84F
DES MOINES IA  FAIR      50  31  48 SW16      29.85S
DAVENPORT IA   FAIR      48  36  63 SW15      29.87F
CHICAGO IL     FAIR      45  34  65 W12       29.86S
EAU CLAIRE WI  FAIR      34  28  79 SW12      29.69F
LA CROSSE WI   FAIR      38  29  70 S8        29.75F
$$

  *****  SOME NATIONAL WEATHER *****

CITY           SKY/WX    TMP DP  RH WIND       PRES   REMARKS
LA GUARDIA NY  CLOUDY    46  34  62 W6        29.96F
RALEIGH NC     MOCLDY    60  44  55 VRB5      30.08S
ATLANTA GA     PTSUNNY   61  55  81 W5        30.17S
NEW ORLEANS LA CLOUDY    71  67  87 NE8       30.17S
OKLAHOMA CITY  FAIR      52  43  71 S10       30.08F
ALBUQUERQUE NM PTSUNNY   44  25  47 S9        30.13F
SALT LAKE CITY PTSUNNY   43  22  43 W5        30.25F
LOS ANGELES CA FAIR      71  23  16 W8        30.13F
BOISE ID       FAIR      42  28  57 CALM      30.19F
SEATTLE WA     CLOUDY    46  42  86 E12       30.13S
$$

*** WEATHER ACROSS MANITOBA...SASKATCHEWAN AND ONTARIO ***
                ***ONTARIO***

CITY           SKY/WX    TMP DP  RH WIND       PRES   REMARKS
GERALDTON      CLOUDY    30  28  93 SW16G23   29.41S WCI  19
THUNDER BAY    CLOUDY    34  30  86 SW7       29.48F
SIOUX LOOKOUT  MOCLDY    30  27  86 SW9       29.35S WCI  22
TORONTO        DRIZZLE   37  36  93 SW7       29.81R FOG
BIG TROUT LK   FLURRIES  30  28  93 W12G17    29.06S WCI  21
PICKLE LAKE    FLURRIES  30  27  86 SW14G22   29.24F WCI  20
DRYDEN         CLOUDY    32  30  93 SW10G17   29.36S WCI  24
KENORA         MOCLDY    30  28  93 SW8       29.38  WCI  23
$$
                *** MANITOBA***

CITY           SKY/WX    TMP DP  RH WIND       PRES   REMARKS
BRANDON        PTSUNNY   32  25  74 W15       29.48R WCI  22
DAUPHIN        CLEAR     30  23  74 W21       29.43R WCI  17
ISLAND LAKE    NOT AVBL
PILOT MOUND      N/A     32  28  86 W6          N/A
THE PAS        FLURRIES  30  23  74 W13G24    29.29F WCI  20
THOMPSON       FLURRIES  18  10  73 NW18G25   29.17R WCI   2
WINNIPEG       MOCLDY    32  27  80 W12       29.45R WCI  23
LYNN LAKE      LGT SNOW  10   9  92 NW15G23   29.23R WCI  -6
CHURCHILL      LGT SNOW  10   9  92 NE18      29.11R VSB 1   WCI  -8
GILLAM         HVYSLEET  12   7  79 NW20G26   29.07R WCI  -6
$$
                ***SASKATCHEWAN***

CITY           SKY/WX    TMP DP  RH WIND       PRES   REMARKS
ESTEVAN        CLOUDY    36  30  80 W12       29.57R
KINDERSLEY     MOSUNNY   30  18  59 W20G25    29.66R WCI  18
LLOYDMINSTER   MOSUNNY   28  18  64 NW22G31   29.60R WCI  15
PRINCE ALBERT  PTCLDY    30  19  64 W21G28    29.47S WCI  17
REGINA         PTSUNNY   34  21  60 NW16G23   29.57R WCI  23
YORKTON        CLEAR     28  21  74 W14       29.46S WC



USA.gov is the U.S. government's official web portal to all federal, state and local government web resources and services.